weather.gov     
National Weather Service

Regional Weather Roundup
NWS Homepage
This page is being discontinued on March 12, 2014.
The same data is available at this site. Please update your bookmarks.
Thank you, and we apologize for the inconvenience.
Please send an email to SR-SRH.Webmaster@noaa.gov with any concerns.


Current Version
Previous Version:    01  02  03  04  05  06  07  08  09  10  11  12  13  14  15  16  17  18  19  20  21  22  23  24  25  26  27  28  29  30  
   31  32  33  34  35  36  37  38  39  40  41  42  43  44  45  46  47  48  49  50  51  52  53  
[Printable]
805
ASCA42 TJSJ 251211
RWRPR
PUERTO RICO/U.S. VIRGIN ISLANDS HOURLY WEATHER ROUNDUP
NATIONAL WEATHER SERVICE SAN JUAN PR
800 AM AST FRI JUL 25 2014

PRZ001-004-251300-
PUERTO RICO

CITY           SKY/WX    TMP DP  RH WIND       PRES   REMARKS
SAN JUAN LMM   MOSUNNY   84  75  74 E7G17     30.08R HX  92
PONCE          MOSUNNY   82  72  69 E9        30.03R
AGUADILLA      MOSUNNY   82  73  74 E15       30.08S
CEIBA          MOSUNNY   84  72  65 E10       30.11R
$$

PRZ006-007-251300-
U.S. VIRGIN ISLANDS

CITY           SKY/WX    TMP DP  RH WIND       PRES   REMARKS
CHARLOTTE AMA  LGT RAIN  82  75  78 E9        30.08R
CHRISTIANSTED  MOSUNNY   86  73  66 NE15      30.07R HX  93
$$

HOURLY WEATHER ROUNDUP FOR THE NEWS MEDIA

CITY           SKY/WX    TMP DP  RH WIND       PRES   REMARKS
MIAMI          MOSUNNY   83  75  77 N3        30.09R HX  90
ORLANDO        SUNNY     79  76  90 SW5       30.08R
NEW YORK       MOSUNNY   72  54  53 N10       30.01R
NEWARK         MOSUNNY   69  55  60 N13       30.01R
CHICAGO        CLOUDY    62  48  60 W9        30.09R
HARTFORD       SUNNY     65  55  70 VRB5      29.95R
BOSTON         MOSUNNY   67  52  58 NW8       29.96S
DALLAS         PTCLDY    75  71  87 SE7       30.01S
PHILADELPHIA   MOSUNNY   67  52  58 N8        30.03R




U.S. Dept. of Commerce
NOAA National Weather Service
1325 East West Highway
Silver Spring, MD 20910
E-mail: w-nws.webmaster@noaa.gov
Page last modified: May 16, 2007
NATIONAL WEATHER SERVICE: for Safety, for Work, for Fun - FOR LIFE